Regional Weather Roundup
Issued by NWS Burlington, VT

Home | Current Version | Previous Version | Text Only | Print | Product List | Glossary On
Versions: 1 2 3 4 5 6 7 8 9 10 11 12 13 14 15 16 17 18 19 20 21 22 23 24 25 26 27 28 29 30 31 32 33 34 35 36 37 38 39 40 41 42 43 44 45 46 47 48 49 50
000
ASUS41 KBTV 280730
RWRBTV
VERMONT REGIONAL WEATHER ROUNDUP
NATIONAL WEATHER SERVICE BURLINGTON VT
300 AM EDT FRI AUG 28 2015

NOTE: "FAIR" INDICATES FEW OR NO CLOUDS BELOW 12,000 FEET WITH NO
SIGNIFICANT WEATHER AND/OR OBSTRUCTIONS TO VISIBILITY.

* THESE REPORTS ARE NOT UNDER NWS QUALITY CONTROL AND/OR DO NOT
  REPORT WEATHER SUCH AS PRECIPITATION AND FOG.

VTZ001>019-280800-
_____VERMONT_____


CITY           SKY/WX    TMP DP  RH WIND       PRES   REMARKS
BURLINGTON     CLOUDY    60  56  86 CALM      30.13R
MONTPELIER     CLEAR     51  50  96 CALM      30.16S
MORRISVILLE    CLOUDY    56  53  90 CALM      30.14S
ST. JOHNSBURY*   N/A     54  53  97 MISG      30.11R
LYNDONVILLE*   FAIR      53  52  97 CALM      30.14R
MIDDLEBURY*    FAIR      52  52 100 CALM      30.13R
RUTLAND*       PTCLDY    52  45  76 SE6       30.16R
SPRINGFIELD    MOCLDY    50  49  96 CALM      30.13S FOG
HIGHGATE*      FAIR      56  55  97 CALM      30.12S
NEWPORT*       CLOUDY    57  55  93 CALM      30.13S
BENNINGTON     FAIR      52  50  93 CALM      30.14R
GALLUP MILLS*    N/A     50 N/A N/A MISG        N/A
MT. MANSFIELD*   N/A     50 N/A N/A NW7         N/A

_____LAKE CHAMPLAIN_____


CITY           SKY/WX    TMP DP  RH WIND       PRES   REMARKS
COLCHESTER RF*   N/A     64  59  82 W13         N/A
DIAMOND ISL*     N/A     61  57  88 SE5         N/A

$$

NYZ007-026>031-035-052-083-280800-
_____NORTHERN NEW YORK_____


CITY           SKY/WX    TMP DP  RH WIND       PRES   REMARKS
PLATTSBURGH    CLEAR     58  54  86 W3        30.12R
SARANAC LAKE   CLOUDY    55  53  93 CALM      30.15S
MASSENA        CLOUDY    54  52  93 CALM      30.15S
OGDENSBURG*    MOCLDY    54  54 100 CALM      30.15S
POTSDAM*       CLOUDY    55  55 100 CALM      30.15S
STARK FALLS*     N/A     61 N/A N/A W3          N/A
WATERTOWN      CLOUDY    55  53  93 NE5       30.15R
FT DRUM        PTCLDY    53  52  97 SE2       30.15R
ALBANY         PTCLDY    58  52  80 CALM      30.14R
GLENS FALLS    CLEAR     55  52  89 S3        30.13R

$$
NHZ002-005-011-280800-
_____NEW HAMPSHIRE_____


CITY           SKY/WX    TMP DP  RH WIND       PRES   REMARKS
LEBANON        MOCLDY    51  49  92 S5        30.13R
KEENE          CLOUDY    54  48  82 CALM      30.13R VSB 1/2
MT WASHINGTON  FOG       41  41 100 W21         N/A  VSB 0   WCI  32
PLYMOUTH       FAIR      54  52  92 CALM      30.10R
WHITEFIELD     CLOUDY    56  53  90 CALM      30.12S

$$

_____REGIONAL QUEBEC LOCATIONS_____


CITY           SKY/WX    TMP DP  RH WIND       PRES   REMARKS
MONTREAL       CLEAR     59  54  82 W6        30.11S
QUEBEC CITY    PTCLDY    54  52  94 SW10      30.05
SHERBROOKE     CLOUDY    59  55  88 W3        30.10S

_____REGIONAL ONTARIO LOCATIONS_____


CITY           SKY/WX    TMP DP  RH WIND       PRES   REMARKS
OTTAWA         CLEAR     52  50  93 SW3       30.15S

______KEY______
VSB  - VISIBILITY IN MILES
WCI  - WIND CHILL INDEX
HX   - HEAT INDEX
$$
NNNN



USA.gov is the U.S. government's official web portal to all federal, state and local government web resources and services.